This is the latest recevied weather packets stored in our database for station/object DG8RAD-1. If no packets are shown the sender has not sent any weather packets the latest 10 day(s).
| Time | Temp. | Humidity | Pressure | Rain* | Wind** | Luminosity | Snow |
|---|---|---|---|---|---|---|---|
| 1777831205 | 28.33° C | 22% | 1014 hPa | 0 mm | - | - | - |
| 1777830305 | 28.89° C | 21% | 1014 hPa | 0 mm | - | - | - |
| 1777829405 | 29.44° C | 21% | 1014 hPa | 0 mm | - | - | - |
| 1777828505 | 29.44° C | 20% | 1014 hPa | 0 mm | - | - | - |
| 1777827605 | 30.56° C | 19% | 1014 hPa | 0 mm | - | - | - |
| 1777826705 | 31.67° C | 16% | 1014 hPa | 0 mm | - | - | - |
| 1777825805 | 33.89° C | 14% | 1014 hPa | 0 mm | - | - | - |
| 1777824905 | 36.11° C | 13% | 1014 hPa | 0 mm | - | - | - |
| 1777824005 | -12.22° C | - | - | - | - | - | - |
| 1777823105 | -12.22° C | - | - | - | - | - | - |
| 1777822205 | 35° C | 17% | 1014 hPa | 0 mm | - | - | - |
| 1777821305 | 33.89° C | 17% | 1014 hPa | 0 mm | - | - | - |
| 1777820405 | 35° C | 17% | 1014 hPa | 0 mm | - | - | - |
| 1777819505 | 33.89° C | 17% | 1014 hPa | 0 mm | - | - | - |
| 1777818605 | 33.33° C | 17% | 1014 hPa | 0 mm | - | - | - |
| 1777817705 | 34.44° C | 16% | 1014 hPa | 0 mm | - | - | - |
| 1777816805 | 35.56° C | 15% | 1014 hPa | 0 mm | - | - | - |
| 1777815905 | 35.56° C | 15% | 1014 hPa | 0 mm | - | - | - |
| 1777815005 | 35° C | 16% | 1014 hPa | 0 mm | - | - | - |
| 1777814105 | 33.89° C | 17% | 1015 hPa | 0 mm | - | - | - |
| 1777813205 | 34.44° C | 17% | 1015 hPa | 0 mm | - | - | - |
| 1777812305 | 34.44° C | 18% | 1015 hPa | 0 mm | - | - | - |
| 1777811405 | 32.78° C | 20% | 1015 hPa | 0 mm | - | - | - |
| 1777810505 | 20° C | 26% | 5470.7 hPa | 0 mm | - | - | - |
| 1777809605 | 31.67° C | 21% | 1015 hPa | 0 mm | - | - | - |
* Rain latest hour (hover to see other rain measurements)
** Current wind speed in m/s (hover to see current wind gust speed)